EST,Max TemperatureF,Mean TemperatureF,Min TemperatureF,Max Dew PointF,MeanDew PointF,Min DewpointF,Max Humidity, Mean Humidity, Min Humidity, Max Sea Level PressureIn, Mean Sea Level PressureIn, Min Sea Level PressureIn, Max VisibilityMiles, Mean VisibilityMiles, Min VisibilityMiles, Max Wind SpeedMPH, Mean Wind SpeedMPH, Max Gust SpeedMPH,PrecipitationIn, CloudCover, Events, WindDirDegrees
2013-1-1,54,50,45,53,46,39,100,86,71,30.13,30.03,29.95,10,9,0,18,6,22,0.05,7,Rain,225
2013-1-2,50,45,39,51,44,39,100,99,96,30.21,30.07,29.93,10,6,1,13,4,17,0.26,6,Rain,26
2013-1-3,42,36,29,40,35,30,100,90,62,30.27,30.21,30.16,10,7,3,6,1,,0.01,4,Rain,46
2013-1-4,51,40,28,31,28,23,100,67,36,30.31,30.26,30.20,10,9,2,12,3,16,0.00,1,,271
2013-1-5,51,40,28,33,26,22,89,62,35,30.40,30.32,30.28,10,10,10,6,2,,0.00,0,,244
2013-1-6,46,43,40,44,39,32,100,86,69,30.29,30.17,30.08,10,8,0,10,3,,0.04,6,Fog-Rain,208
2013-1-7,52,41,30,40,34,31,100,83,48,30.46,30.35,30.17,10,9,3,15,3,20,0.00,0,,10
2013-1-8,54,42,29,44,37,30,100,86,62,30.46,30.41,30.38,10,9,4,6,1,,0.00,4,,22
2013-1-9,69,52,36,54,46,36,100,88,51,30.44,30.39,30.37,10,8,3,6,1,,0.00,0,,285
2013-1-10,64,54,44,52,43,33,100,72,46,30.54,30.47,30.41,10,9,2,10,2,,0.00,0,,71
2013-1-11,59,52,45,56,46,32,100,85,56,30.46,30.28,30.15,10,8,0,7,3,,0.02,7,Fog-Rain,63
2013-1-12,71,60,50,63,56,50,100,95,69,30.18,30.14,30.11,10,4,0,8,1,,0.00,5,Fog,247
2013-1-13,76,66,55,65,59,56,100,89,54,30.16,30.12,30.08,10,6,0,9,2,,0.01,4,Fog,180
2013-1-14,77,66,55,62,59,55,100,82,55,30.17,30.13,30.11,10,10,2,15,6,21,0.00,2,,197
2013-1-15,62,54,46,61,50,47,100,99,89,30.22,30.17,30.08,10,4,1,17,7,16,0.00,8,,47
2013-1-16,55,52,49,56,52,50,100,100,100,30.08,30.02,29.98,10,4,0,12,2,,0.01,8,Fog-Rain,11
2013-1-17,52,45,37,53,49,37,100,100,97,30.03,29.97,29.88,10,5,1,28,6,36,0.62,8,Rain,32
2013-1-18,48,38,28,36,31,25,100,79,41,30.54,30.40,30.08,10,10,5,14,7,22,0.04,2,Rain,345
2013-1-19,56,40,24,38,31,24,100,78,32,30.53,30.36,30.18,10,10,7,9,1,,0.00,0,,210
2013-1-20,64,50,37,40,36,32,93,65,32,30.18,30.07,29.99,10,10,10,17,6,22,0.00,0,,233
2013-1-21,61,45,29,37,32,28,100,66,32,30.09,30.00,29.88,10,10,10,10,3,,0.00,0,,222
2013-1-22,43,34,24,25,11,2,68,40,20,30.30,30.16,29.96,10,10,10,16,6,25,0.00,0,,323
2013-1-23,40,29,18,19,13,5,89,56,30,30.41,30.29,30.11,10,10,10,10,2,,0.00,0,,221
2013-1-24,37,28,20,29,18,8,85,59,37,30.54,30.27,29.98,10,10,10,24,9,34,0.00,1,,359
2013-1-25,29,24,18,29,18,8,99,76,43,30.55,30.35,30.13,10,8,2,7,2,,0.38,4,Snow,287
2013-1-26,37,30,23,33,28,23,100,97,82,30.41,30.24,30.12,10,4,0,7,2,,0.00,4,Fog,348
2013-1-27,41,34,26,32,27,24,100,87,52,30.61,30.53,30.41,10,6,0,8,2,,0.00,4,Fog,52
2013-1-28,52,40,28,49,37,28,100,85,69,30.53,30.39,30.24,10,9,4,9,1,,0.03,6,Rain,189
2013-1-29,72,59,46,58,52,46,97,81,53,30.24,30.17,30.11,10,9,5,14,8,22,0.00,1,,223
2013-1-30,73,66,59,64,62,58,100,83,67,30.11,29.87,29.51,10,10,5,25,11,40,0.00,6,Rain,185
2013-1-31,71,52,34,64,28,20,83,49,29,30.04,29.88,29.44,10,10,10,31,16,43,0.02,1,Rain,255